CW8484 Weather Reports


time (UTC)temp
C
wind
direction
speed
KPH
gust
KPH
rain 1hr
cm
rain 24hr
cm
rain mn
cm
humidity
%
barometer
mb
20260506032403 11 252 1.6 12.9 0.08 0.79 0.79 84 1006.4
20260506031402 12 255 1.6 11.3 0.08 0.79 0.79 82 1006.3
20260506030403 12 265 6.4 17.7 0.03 0.74 0.74 78 1006.2
20260506025424 13 259 9.7 22.5 0.03 0.71 0.71 74 1006.1
20260506024402 13 244 8.0 24.1 0.00 0.69 0.69 70 1005.8
20260506023403 14 261 9.7 25.7 0.00 0.69 0.69 70 1005.7
20260506020405 14 254 12.9 22.5 0.00 0.69 0.69 75 1005.7
20260506015405 15 257 12.9 29.0 0.00 0.69 0.69 77 1006.1
20260506014404 15 253 11.3 22.5 0.00 0.69 0.69 83 1005.7
20260506013405 15 209 1.6 14.5 0.00 0.69 0.69 85 1004.9
20260506012426 15 183 3.2 6.4 0.00 0.69 0.69 85 1004.6
20260506011406 15 183 0.0 6.4 0.00 0.69 0.69 85 1004.4
20260506010426 15 182 1.6 6.4 0.00 0.69 0.69 84 1004.3
20260506005405 15 182 0.0 8.0 0.00 0.69 0.69 84 1004.0
20260506004425 15 175 4.8 11.3 0.00 0.69 0.69 83 1004.0
20260506003405 16 174 1.6 12.9 0.00 0.69 0.69 82 1003.6
20260506002404 16 192 3.2 12.9 0.00 0.69 0.69 81 1003.5
20260506001405 16 178 4.8 19.3 0.00 0.69 0.69 81 1003.1
20260506000405 16 182 4.8 16.1 0.00 0.69 0.69 80 1003.4
20260505235404 17 184 3.2 16.1 0.00 0.69 0.69 78 1003.4
20260505234405 16 181 8.0 22.5 0.00 0.69 0.69 77 1003.1
20260505233404 15 187 6.4 12.9 0.00 0.69 0.69 82 1003.2
20260505232405 15 213 4.8 19.3 0.00 0.69 0.69 85 1003.3
20260505231404 15 201 1.6 9.7 0.00 0.69 0.69 86 1003.0
20260505230405 15 195 3.2 9.7 0.00 0.69 0.69 85 1002.6
20260505225405 16 185 3.2 17.7 0.00 0.69 0.69 85 1002.6
20260505224405 16 181 4.8 17.7 0.00 0.69 0.69 84 1002.6
20260505223406 16 168 8.0 16.1 0.00 0.69 0.69 84 1002.5
20260505222405 16 175 3.2 11.3 0.00 0.69 0.69 85 1002.7
20260505221404 16 183 6.4 11.3 0.00 0.69 0.69 83 1002.8
20260505220405 16 199 3.2 16.1 0.00 0.69 0.69 82 1002.5
20260505215405 15 196 9.7 27.4 0.00 0.69 0.69 82 1002.6
20260505214404 15 208 4.8 11.3 0.00 0.69 0.69 86 1002.8
20260505213404 15 184 0.0 12.9 0.00 0.69 0.69 85 1002.7
20260505211404 15 175 3.2 9.7 0.00 0.69 0.69 87 1002.2
20260505210425 15 161 0.0 11.3 0.00 0.69 0.69 87 1001.8
20260505205405 15 172 3.2 11.3 0.30 0.69 0.69 86 1001.8
20260505204425 15 229 1.6 11.3 0.30 0.69 0.69 86 1002.0
20260505203406 15 225 8.0 19.3 0.30 0.69 0.69 86 1001.6
20260505202405 15 226 11.3 30.6 0.30 0.69 0.69 84 1001.5
20260505201404 15 234 16.1 32.2 0.28 0.66 0.66 83 1001.9
20260505200405 16 246 16.1 30.6 0.05 0.43 0.43 82 1002.0
20260505195404 16 284 4.8 12.9 0.18 0.38 0.38 89 1001.4
20260505194405 16 192 0.0 0.0 0.18 0.38 0.38 89 1000.9
20260505193426 16 191 0.0 3.2 0.18 0.38 0.38 88 1000.6
20260505192404 16 193 0.0 1.6 0.18 0.38 0.38 88 1001.1
20260505191405 16 193 1.6 8.0 0.18 0.38 0.38 86 1000.5
20260505190405 16 204 0.0 19.3 0.03 0.23 0.23 84 1000.4
20260505185405 17 266 8.0 16.1 0.20 0.20 0.20 84 1000.4
20260505184425 16 256 1.6 17.7 0.20 0.20 0.20 85 1000.0
20260505183404 17 258 4.8 22.5 0.18 0.18 0.18 80 1000.4
20260505182404 19 248 9.7 24.1 0.05 0.05 0.05 68 1000.4
20260505181404 22 219 8.0 19.3 0.00 0.00 0.00 54 999.7
20260505180405 22 187 6.4 19.3 0.00 0.00 0.00 53 999.3
20260505175404 22 182 12.9 37.0 0.00 0.00 0.00 51 999.6
20260505174404 22 195 14.5 29.0 0.00 0.00 0.00 50 999.2
20260505173405 23 190 19.3 38.6 0.00 0.00 0.00 48 999.3
20260505172405 23 182 11.3 37.0 0.00 0.00 0.00 48 999.3
20260505171404 23 172 9.7 27.4 0.00 0.00 0.00 50 999.2
20260505170404 24 166 17.7 37.0 0.00 0.00 0.00 47 999.3
20260505165404 24 186 11.3 30.6 0.00 0.00 0.00 50 999.4
20260505164425 23 184 11.3 33.8 0.00 0.00 0.00 51 999.7
20260505163404 22 165 12.9 32.2 0.00 0.00 0.00 51 1000.0
20260505162404 22 181 16.1 33.8 0.00 0.00 0.00 52 1000.5
20260505161405 22 187 20.9 37.0 0.00 0.00 0.00 52 1000.5
20260505160426 22 166 14.5 32.2 0.00 0.00 0.00 53 1001.1
20260505152404 21 173 19.3 38.6 0.00 0.00 0.00 54 1001.6
20260505151404 21 166 12.9 38.6 0.00 0.00 0.00 54 1001.7
20260505150425 21 177 12.9 32.2 0.00 0.00 0.00 55 1001.5
20260505140404 17 177 12.9 37.0 0.00 0.00 0.00 60 1002.2
20260505124425 16 187 11.3 45.1 0.00 0.13 0.00 59 1002.4
20260505123404 16 167 16.1 33.8 0.00 0.13 0.00 58 1002.7
20260505122404 16 178 11.3 35.4 0.00 0.13 0.00 59 1002.6
20260505121404 15 184 16.1 35.4 0.00 0.13 0.00 59 1002.5
20260505120404 15 170 6.4 27.4 0.00 0.13 0.00 60 1002.5
20260505115404 15 175 9.7 29.0 0.00 0.13 0.00 60 1002.5
20260505114404 15 182 11.3 33.8 0.00 0.13 0.00 60 1002.5
20260505113404 15 174 6.4 35.4 0.00 0.13 0.00 60 1002.6
20260505112404 15 176 11.3 32.2 0.00 0.13 0.00 59 1002.6
20260505111404 15 171 11.3 33.8 0.00 0.13 0.00 60 1002.3
20260505110404 15 164 9.7 35.4 0.00 0.13 0.00 61 1002.4
20260505101404 14 168 8.0 32.2 0.00 0.13 0.00 60 1002.2
20260505100404 14 172 16.1 27.4 0.00 0.13 0.00 60 1002.4
20260505095404 14 178 14.5 30.6 0.00 0.13 0.00 60 1002.5
20260505094404 14 183 8.0 29.0 0.00 0.13 0.00 59 1002.5
20260505093404 15 177 9.7 27.4 0.00 0.13 0.00 58 1002.5
20260505092404 15 176 9.7 33.8 0.00 0.13 0.00 58 1002.5
20260505091404 15 159 12.9 27.4 0.00 0.13 0.00 58 1002.4
20260505090404 15 172 8.0 24.1 0.00 0.13 0.00 58 1002.6
20260505085425 15 169 8.0 24.1 0.00 0.13 0.00 58 1002.6
20260505084404 15 177 9.7 35.4 0.00 0.13 0.00 57 1002.8
20260505083424 15 146 4.8 27.4 0.00 0.13 0.00 57 1002.7
20260505082404 15 162 14.5 33.8 0.00 0.13 0.00 57 1002.8
20260505081404 15 168 11.3 24.1 0.00 0.13 0.00 57 1002.8
20260505080404 15 171 6.4 29.0 0.00 0.13 0.00 57 1002.7
20260505075404 15 162 9.7 29.0 0.00 0.13 0.00 56 1002.6
20260505074426 15 161 6.4 24.1 0.00 0.13 0.00 56 1002.4
20260505073403 15 167 8.0 33.8 0.00 0.13 0.00 56 1002.6
20260505072404 15 170 11.3 29.0 0.00 0.13 0.00 56 1002.8
20260505071403 15 156 6.4 22.5 0.00 0.13 0.00 56 1002.7
20260505070425 15 163 8.0 22.5 0.00 0.13 0.00 55 1002.7
20260505065425 15 176 9.7 33.8 0.00 0.13 0.00 55 1002.8
20260505064403 15 187 3.2 29.0 0.00 0.13 0.00 55 1002.8
20260505063404 15 167 11.3 29.0 0.00 0.13 0.00 56 1002.8
20260505062403 14 176 12.9 25.7 0.00 0.13 0.00 55 1002.7
20260505061404 15 176 12.9 30.6 0.00 0.13 0.00 55 1002.6
20260505060404 14 178 11.3 22.5 0.00 0.13 0.00 55 1002.6
20260505055404 15 170 8.0 20.9 0.00 0.13 0.00 55 1002.7
20260505054404 14 174 8.0 24.1 0.00 0.13 0.00 55 1002.7
20260505053404 14 164 8.0 29.0 0.00 0.13 0.00 56 1002.8
20260505052403 14 159 8.0 17.7 0.00 0.13 0.00 57 1002.9
20260505051404 14 172 4.8 17.7 0.00 0.13 0.00 57 1002.9
20260505050404 14 190 3.2 22.5 0.00 0.13 0.00 57 1003.0
20260505041403 13 169 6.4 17.7 0.00 0.13 0.00 61 1003.2
20260505040426 12 181 3.2 16.1 0.00 0.13 0.00 63 1003.3
20260505035403 12 167 4.8 16.1 0.00 0.13 0.13 63 1003.3
20260505034404 12 161 3.2 11.3 0.00 0.13 0.13 63 1003.3
20260505033446 12 181 1.6 11.3 0.00 0.13 0.13 63 1003.3